Showing default

FENGYUN 3G, 56232

Orbit data source: Space-Track

FENGYUN 3G, 56232 is a payload satellite owned by CNMSC (CN) in LEO that was launched on Sun, 16 Apr 2023 UTC via a CHANG ZHENG 4B launch vehicle from the Jiuquan Satellite Launch Center, China (JSC). Payload-class satellites include a variety of spacecraft equipped with specific instruments for various scientific and technological missions. These include communications satellites like Starlink; space stations such as the ISS; scientific satellites like the Hubble; Earth observation satellites from companies like Planet Labs, Umbra, and HawkEye 360; GPS; miniature CubeSats for education and research; and military/defense satellites.

Loading next visibility...
Identifier
56232, 2023-055A
Orbit
LEO
Last TLE update
9 hours ago
Origin
Manufacturer
SISE
Mission
Operational Civil Weather
Bus & Motor
SAST-3000, Unknown motor
Mass
3,850 kg wet, 3,110 kg dry
Launch date (UTC)
2023-04-16 (2 years ago)
Launch vehicle
CHANG ZHENG 4B
Launch site
Jiuquan Satellite Launch Center, China (JSC)
Object type
Payload
Rocket body
Debris
Shape & HBR
Box + 2 Pan, 10 m
Radar Cross Section
15.104 m², Large (>1 m²)

Expand to show TLE details & history

TLE from 9 hours ago
0 FENGYUN 3G
1 56232U 23055A   25186.59612188  .00025412  00000-0  40124-3 0  9993
2 56232  49.9961 333.2903 0019250 203.1637 156.8464 15.53087538126132
Epoch: 2025-07-05T14:18Z
TLE epoch observation values (Epoch: 2025-07-05T14:18:24.93Z)
Latitude
-0.00005°
Longitude
-165.14551°
Altitude
420.292 km
Speed
7.654 km/s
True Right ascension
22h 13m 09s
True Declination
0° 00' 00"
Sunlit
Object was in full shadow at epoch
Visualization orbit readout
Latitude
-6.23985°
Longitude
18.25691°
Altitude
396.735 km
Speed
7.68 km/s
Apparent Right ascension
09h 36m 03s
Apparent Declination
-68° 24' 40"
Sunlit
Object is in daylight
Visualization observer readout
Local Sidereal Time
10:46:18
Azimuth
186.748° SSW
Elevation
-19.123°
Doppler factor
1
Orbital elements
Apogee altitude
421.564 km
Perigee altitude
395.436 km
Semi-major axis
6,786.637 km
Eccentricity
0.00193
Inclination
49.9961°
RAAN
333.2903°
Arg. of periapsis
203.1637°
True anomaly
Unknown
Mean anomaly
156.8464°
Eccentric anomaly
Unknown
Mean motion
3.88205 °/min
Orbital period
92.73 mins
BSTAR
0.00040124
Loading maneuver chart data...
Loading SW <> Apogee altitude chart data...
Loading historical data...
Loading historical data...
Loading historical data...
Loading historical data...
Loading historical data...
Loading historical data...
Loading historical data...
Other satellites on launch #55 in the year 2023 (2023-04-16 UTC)

FENGYUN 3G Visibility forecast

Observer location: undefined°, undefined°

Span
Click to sort rows by Start time (UTC) header in descending order
Start Az.
Max El. time (UTC)
Max El. Az.
Max El.
End time (UTC)
End Az.
5 mins2025-07-06 12:06:03.049Z196.566° SSW2025-07-06 12:08:03.049Z150.018° SSE27.705°2025-07-06 12:11:03.049Z75.445° E
5 mins2025-07-06 13:43:03.049Z277.747° WNW2025-07-06 13:45:03.049Z335.701° NNW29.308°2025-07-06 13:48:03.049Z41.808° NE
5 mins2025-07-06 18:35:03.049Z312.132° NW2025-07-06 18:37:03.049Z9.719° NNE42.243°2025-07-06 18:40:03.049Z115.092° SE
|